Regional Weather Roundup
Issued by NWS

Home | Current Version | Previous Version | Graphics & Text | Print | Product List | Glossary On
Versions: 1 2 3 4 5 6 7 8 9 10 11 12 13 14 15 16 17 18 19 20 21 22 23 24 25 26 27 28 29 30 31 32 33 34 35 36 37 38 39 40 41 42 43 44 45 46 47 48 49 50
000
ASUS43 KDMX 301607
RWRIA

WEATHER ROUNDUP FOR IOWA
NATIONAL WEATHER SERVICE DES MOINES IA
1000 AM CST FRI JAN 30 2015

NOTE: "FAIR" INDICATES FEW OR NO CLOUDS BELOW 12,000 FEET WITH NO
SIGNIFICANT WEATHER AND/OR OBSTRUCTIONS TO VISIBILITY.

* - THESE STATIONS ARE NOT NWS STATIONS...THUS NOT UNDER NWS
QUALITY CONTROL.  THEY ALSO DO NOT REPORT WEATHER SUCH
AS PRECIPITATION OR FOG.

IAZ001>003-012>014-020>022-031>034-043>046-301700-
   NORTHWEST IOWA

CITY           SKY/WX    TMP DP  RH WIND       PRES   REMARKS
CARROLL *      SUNNY     19  16  86 SE8       30.54R WCI   9
CHEROKEE *     SUNNY     19  18  93 S10       30.51F WCI   8
DENISON *      SUNNY     21  18  86 VRB7      30.51F WCI  13
LE MARS *      CLOUDY    23  18  80 S12       30.50F WCI  12
ORANGE CITY *  CLOUDY    21  18  86 S9        30.48F WCI  11
SHELDON *      CLOUDY    19  18  93 S12       30.47S WCI   7
SIOUX CITY     MOSUNNY   25  19  78 SE9       30.51F WCI  15
SPENCER        SUNNY     20  13  74 S10       30.49F WCI   9
STORM LAKE *   SUNNY     19  14  79 S13       30.50F WCI   7
$$

IAZ055>058-069>071-079>083-090>094-301700-
   SOUTHWEST IOWA

CITY           SKY/WX    TMP DP  RH WIND       PRES   REMARKS
ATLANTIC *     SUNNY     21  18  86 CALM      30.55R
AUDUBON *      SUNNY     21  18  86 S6        30.53S WCI  14
CLARINDA *     SUNNY     25  19  80 SE5       30.57F WCI  19
COUNCIL BLFS * SUNNY     23  21  93 S9        30.52S WCI  13
CRESTON *      SUNNY     21  18  86 SE6       30.54R WCI  14
HARLAN  *      SUNNY     21  19  93 SE6       30.57S WCI  14
LAMONI         SUNNY     22  17  81 E3        30.54S
RED OAK *      SUNNY     25  19  80 SE7       30.55F WCI  17
SHENANDOAH *   SUNNY     25  21  86 SE6       30.57S WCI  18
$$

IAZ047>049-059>061-072>074-084-301700-
   CENTRAL IOWA

CITY           SKY/WX    TMP DP  RH WIND       PRES   REMARKS
AMES           SUNNY     20  13  74 SE6       30.55S WCI  12
ANKENY *       SUNNY     21  14  73 SE6       30.56S WCI  14
CHARITON *     SUNNY     23  14  68 CALM      30.55R
DES MOINES     MOSUNNY   22  13  68 CALM      30.56S
GRINNELL*      SUNNY     19  12  73 CALM      30.55S
KNOXVILLE *    SUNNY     21  12  68 VRB3      30.55S
MARSHALLTOWN   SUNNY     19   9  65 E3        30.54R
PELLA *        SUNNY     21  14  73 CALM      30.58R
PERRY *          N/A     21  16  79 S5        30.56R WCI  15
$$

IAZ004>006-015-016-023>025-035-036-301700-
   NORTH CENTRAL IOWA

CITY           SKY/WX    TMP DP  RH WIND       PRES   REMARKS
ALGONA *       SUNNY     19  14  79 S13       30.51F WCI   7
CLARION *      SUNNY     19  14  79 S7        30.53R WCI  10
ESTHERVILLE    SUNNY     16  11  80 S10       30.48F WCI   4
FORT DODGE *   SUNNY     19  12  73 S6        30.53F WCI  11
MASON CITY     SUNNY     17  13  84 S6        30.53R WCI   9
FOREST CITY *  SUNNY     19  10  68 S8        30.50F WCI   9
IOWA FALLS *     N/A     19  12  73 SE5       30.53F WCI  13
$$

IAZ007>011-017>019-026>030-037>042-050>054-066-301700-
   NORTHEAST IOWA

CITY           SKY/WX    TMP DP  RH WIND       PRES   REMARKS
CEDAR RAPIDS   SUNNY     20  12  71 VRB3      30.54F
CHARLES CITY * SUNNY     18   7  62 CALM      30.54R
CLINTON *      SUNNY     19  10  68 CALM      30.58R
DECORAH *      SUNNY     14   5  67 NW3       30.52R
DUBUQUE        MOSUNNY   19   9  65 N6        30.53R WCI  11
MONTICELLO *   SUNNY     19  12  73 E5        30.54F WCI  13
OELWEIN *      MOSUNNY   18   9  68 VRB5      30.53S WCI  11
WATERLOO       SUNNY     19   9  65 CALM      30.54F
$$

IAZ064-065-067-068-078-301700-
   EAST CENTRAL IOWA

CITY           SKY/WX    TMP DP  RH WIND       PRES   REMARKS
DAVENPORT      SUNNY     21  10  62 N3        30.56R
IOWA CITY      SUNNY     22  12  65 CALM      30.58S
MT. PLEASANT * SUNNY     23  14  68 NE7       30.57R WCI  15
MUSCATINE *    MOSUNNY   25  14  63 VRB6      30.58S WCI  18
QUAD CITIES    SUNNY     24  11  57 NE5       30.57R WCI  18
$$

IAZ062-063-075>077-085>089-095>099-301700-
   SOUTHEAST IOWA

CITY           SKY/WX    TMP DP  RH WIND       PRES   REMARKS
BURLINGTON     SUNNY     25  15  66 VRB3      30.56R
FAIRFIELD *    SUNNY     23  14  68 NE5       30.56R WCI  17
FORT MADISON * SUNNY     25  18  74 NE5       30.57R WCI  19
KEOKUK *       SUNNY     27  16  63 NE6       30.56R WCI  20
OSKALOOSA *      N/A     21  12  68 CALM      30.57R
CENTERVILLE *  SUNNY     23  18  80 NE3       30.56S
OTTUMWA        SUNNY     23  13  65 VRB3      30.55R
WASHINGTON *   SUNNY     23  18  80 VRB6      30.57R WCI  16
$$

ABBREVIATIONS USED IN REMARKS
   TC - TEMPERATURES IN CELSIUS
  WCI - WIND CHILL INDEX
   HX - HEAT INDEX
  VSB - VISIBILITY
$$




USA.gov is the U.S. government's official web portal to all federal, state and local government web resources and services.